Location: Caltech
(34.1382°N, 118.1253°W)
Time: 10:12:53
(UTC-07:00)

Cosmos 1943 Rocket - Visible Passes

Search period start: 03 August 2015 00:00
Search period end: 13 August 2015 00:00
Orbit: 813 x 843 km, 71.0° (Epoch: 02 August)

Date Brightness Start Highest point End Pass type
(mag) Time Alt. Az. Time Alt. Az. Time Alt. Az.
03 Aug 3.7 02:15:34 29° ENE 02:15:34 29° ENE 02:18:54 10° NE visible
03 Aug 3.3 03:57:06 27° WNW 03:57:39 27° WNW 04:02:19 10° N visible
04 Aug 4.1 01:57:02 23° ENE 01:57:02 23° ENE 01:59:37 10° NE visible
04 Aug 3.2 03:38:34 31° WNW 03:38:34 31° WNW 03:43:21 10° N visible
05 Aug 4.4 01:38:29 18° ENE 01:38:29 18° ENE 01:40:19 10° NE visible
05 Aug 3.2 03:20:01 34° NW 03:20:01 34° NW 03:24:23 10° N visible
06 Aug 4.6 01:19:54 14° ENE 01:19:54 14° ENE 01:20:57 10° NE visible
06 Aug 3.3 03:01:26 35° NNW 03:01:26 35° NNW 03:05:23 10° N visible
07 Aug 4.8 01:01:17 11° ENE 01:01:17 11° ENE 01:01:32 10° NE visible
07 Aug 3.4 02:42:49 34° NNW 02:42:49 34° NNW 02:46:21 10° N visible
08 Aug 3.6 02:24:10 32° N 02:24:10 32° N 02:27:19 10° N visible
09 Aug 3.8 02:05:30 29° N 02:05:30 29° N 02:08:16 10° NNE visible
10 Aug 4.0 01:46:48 26° N 01:46:48 26° N 01:49:11 10° NNE visible
11 Aug 4.2 01:28:06 23° NNE 01:28:06 23° NNE 01:30:06 10° NNE visible
12 Aug 4.4 01:09:21 20° NNE 01:09:21 20° NNE 01:10:59 10° NNE visible
12 Aug 4.6 02:50:52 11° NW 02:50:52 11° NW 02:51:48 10° NNW visible
